Home   Weather   43°09'N, 88°01'W   Past weeks
Flag for USA

Past Weather in 43°09'N, 88°01'W, USA — Yesterday and Last 2 Weeks

Now
43 °F

Low clouds.


Feels Like: 39 °F
Forecast: 68 / 45 °F
Wind: 7 mph from Northeast

Location: Milwaukee / Timmerman

Current Time: May 19, 2019 at 3:45:47 am

Latest Report: May 19, 2019 at 2:55 am


Visibility: 10 mi

Pressure: 29.72 "Hg

Humidity: 81%

Dew Point: 37 °F

Location of 43°09'N, 88°01'WLocation

Past Weather in 43°09'N, 88°01'W — Graph

°F

43°09'N, 88°01'W Temperature Yesterday

Maximum temperature yesterday: 63 °F (at 5:45 pm)
Minimum temperature yesterday: 41 °F (at 12:55 am)
Average temperature yesterday: 46 °F

High & Low Weather Summary for the Past Weeks

 TemperatureHumidityPressure
High75 °F (May 16, 3:45 pm)100% (May 9, 12:45 pm)30.33 "Hg (May 9, 12:45 pm)
Low32 °F (May 4, 5:35 am)20% (May 11, 5:45 pm)26.69 "Hg (May 9, 12:45 pm)
Average48 °F65%29.96 "Hg
* Reported May 4 2:15 am — May 19 2:35 am, 43°09'N, 88°01'W. Weather by CustomWeather, © 2019

Note: Actual official high and low records may vary slightly from our data, if they occured in-between our weather recording intervals... More about our weather records

Advertising

43°09'N, 88°01'W Weather History for the Previous 24 Hours

Scroll right to see more
 ConditionsComfort  
Time TempWeatherWind HumidityBarometerVisibility
2:35 am
Sun, May 19
43 °FLow clouds.9 mph81%29.72 "Hg10 mi
2:15 am43 °FLow clouds.9 mph81%29.72 "Hg10 mi
1:55 am43 °FLow clouds.10 mph81%29.73 "Hg10 mi
1:35 am43 °FLow clouds.10 mph81%29.75 "Hg10 mi
1:15 am43 °FLow clouds.12 mph81%29.75 "Hg10 mi
12:55 am45 °FLow clouds.14 mph76%29.76 "Hg10 mi
12:35 am45 °FOvercast.13 mph87%29.76 "Hg10 mi
12:15 am45 °FOvercast.9 mph87%29.76 "Hg10 mi
11:55 pm
Sat, May 18
46 °FOvercast.9 mph82%29.76 "Hg10 mi
11:35 pm46 °FLow clouds.10 mph82%29.78 "Hg10 mi
11:15 pm46 °FLow clouds.7 mph82%29.78 "Hg10 mi
10:55 pm46 °FLow clouds.8 mph82%29.78 "Hg10 mi
10:35 pm46 °FLow clouds.8 mph82%29.78 "Hg10 mi
10:15 pm46 °FLow clouds.9 mph82%29.79 "Hg10 mi
9:55 pm46 °FLow clouds.10 mph82%29.79 "Hg10 mi
9:35 pm46 °FLow clouds.10 mph82%29.79 "Hg10 mi
9:15 pm46 °FLow clouds.15 mph87%29.79 "Hg10 mi
8:55 pm46 °FLow clouds.9 mph87%29.80 "Hg7 mi
7:45 pm48 °FPartly sunny.7 mph87%29.78 "Hg5 mi
6:45 pm61 °FScattered clouds.7 mph63%29.76 "Hg10 mi
5:45 pm63 °FSunny.No wind68%29.74 "Hg10 mi
4:45 pm61 °FSunny.No wind68%29.74 "Hg10 mi
3:45 pm59 °FSunny.No wind68%29.72 "Hg10 mi
2:45 pm54 °FSunny.3 mph72%29.73 "Hg10 mi
1:45 pm54 °FScattered clouds.7 mph77%29.74 "Hg10 mi
12:45 pm54 °FScattered clouds.No wind77%29.81 "Hg7 mi
11:45 am50 °FLow clouds.7 mph82%29.83 "Hg7 mi
10:45 am46 °FFog.5 mph87%29.85 "Hg5 mi
9:45 am45 °FFog.7 mph93%29.83 "Hg1 mi
8:45 am45 °FFog.5 mph87%29.86 "Hg1 mi
8:22 am43 °FFog.6 mph87%29.87 "Hg2 mi
7:45 am43 °FLow clouds.6 mph81%29.88 "Hg10 mi
7:15 am43 °FLow clouds.6 mph76%29.88 "Hg10 mi
6:55 am41 °FLow clouds.9 mph81%29.89 "Hg10 mi
6:35 am41 °FLow clouds.6 mph81%29.89 "Hg10 mi
6:15 am41 °FOvercast.7 mph81%29.89 "Hg10 mi
5:55 am41 °FOvercast.6 mph81%29.90 "Hg10 mi
5:35 am41 °FOvercast.8 mph81%29.89 "Hg10 mi
5:15 am41 °FOvercast.5 mph81%29.89 "Hg10 mi
4:55 am41 °FOvercast.8 mph81%29.89 "Hg10 mi
4:35 am41 °FOvercast.6 mph81%29.89 "Hg10 mi
4:15 am43 °FOvercast.5 mph81%29.90 "Hg10 mi
3:55 am43 °FOvercast.7 mph81%29.90 "Hg10 mi
3:35 am43 °FOvercast.7 mph81%29.91 "Hg10 mi
3:15 am43 °FOvercast.8 mph81%29.92 "Hg10 mi
Weather by CustomWeather, © 2019

See weather overview